Location: Tucson
(32.2217°N, 110.9265°W)
Time: 07:55:58
(UTC-07:00)

Tiros 1 - Pass Details

Date: 30 October 2021
Orbit: 629 x 664 km, 48.4° (Epoch: 27 November)

Event Time Altitude Azimuth Distance (km) Brightness Sun altitude
Rises 09:18:48 0° 280° (W) 2,987 10.1 28.7°
Reaches altitude 10° 09:21:58 10° 302° (WNW) 2,074 9.3 29.2°
Maximum altitude 09:25:00 16° 341° (NNW) 1,682 9.0 29.6°
Drops below altitude 10° 09:28:01 10° 21° (NNE) 2,067 9.6 30.1°
Sets 09:31:10 0° 42° (NE) 2,973 10.5 30.6°
